Date String (YYYY-MM-DD hh:mm:ss) UTC,Instrument flags,absolute air pressure of the measurement (hPa),sample flow rate (lpm),inlet stack bypass flow (lpm),air temperature of the measurement (°C),ambient temperature measured by the external sensor (°C),aerosol sample conditioner tube jacket temperature (°C),OPC LED temperature (°C),internal box temperature (°C),relative humidity of the measurement (%),span deviation,mass concentration of particles derived from Lorenz-Mie calculation of OPC scattering (μg/m³),mass concentration of particles derived from Lorenz-Mie calculation of OPC scattering (μg/m³),mass concentration of particles derived from Lorenz-Mie calculation of OPC scattering (μg/m³)
DateTimeUTC,F1_M11,P_M11,Q1_M11,Q2_M11,T1_M11,T2_M11,T3_M11,T4_M11,T5_M11,U1_M11,ZSPAN_M11,X2_M11,X0_M11,X1_M11
2023-06-07 00:00:00,SystemResetWarning,0829.7,5.00,000.00,030.0,026.3,000.0,038.4,030.9,28.5,0000.0,0005.48,0010.83,0004.97
2023-06-07 00:01:00,SystemResetWarning,0829.7,5.00,000.00,029.9,026.6,000.0,038.4,031.0,27.3,0000.0,0005.15,0010.48,0004.65
2023-06-07 00:02:00,SystemResetWarning,0829.7,5.00,000.00,029.9,027.0,000.0,038.4,031.0,27.5,0000.0,0004.82,0010.14,0004.34
2023-06-07 00:03:00,SystemResetWarning,0829.7,5.00,000.00,029.9,027.2,000.0,038.4,031.0,27.1,0000.0,0004.54,0009.94,0004.06
2023-06-07 00:04:00,SystemResetWarning,0829.7,5.00,000.00,029.9,027.5,000.0,038.4,031.1,26.6,0000.0,0004.29,0009.74,0003.81
2023-06-07 00:05:00,SystemResetWarning,0829.7,5.00,000.00,029.9,027.7,000.0,038.4,031.1,26.1,0000.0,0004.04,0009.46,0003.60
2023-06-07 00:06:00,SystemResetWarning,0829.7,5.00,000.00,029.9,027.9,000.0,038.4,031.2,26.3,0000.0,0003.95,0009.42,0003.52
2023-06-07 00:07:00,SystemResetWarning,0829.7,4.99,000.00,030.0,028.0,000.0,038.4,031.2,25.8,0000.0,0003.87,0009.48,0003.46
2023-06-07 00:08:00,SystemResetWarning,0829.7,5.00,000.00,030.0,028.1,000.0,038.4,031.2,25.6,0000.0,0003.81,0008.96,0003.40
2023-06-07 00:09:00,SystemResetWarning,0829.7,5.00,000.00,030.0,028.2,000.0,038.4,031.3,25.5,0000.0,0003.74,0008.51,0003.34
2023-06-07 00:10:00,SystemResetWarning,0829.7,5.00,000.00,030.0,028.3,000.0,038.4,031.3,26.0,0000.0,0003.72,0007.75,0003.29
2023-06-07 00:11:00,SystemResetWarning,0829.7,5.00,000.00,030.0,028.2,000.0,038.5,031.4,25.0,0000.0,0003.71,0007.24,0003.28
2023-06-07 00:24:00,SystemResetWarning,0829.6,5.00,000.00,029.8,028.1,000.0,038.3,031.2,25.6,0000.0,0003.45,0005.64,0003.12
2023-06-07 00:25:00,SystemResetWarning,0829.6,5.00,000.00,029.8,028.2,000.0,038.3,031.2,25.5,0000.0,0003.40,0004.94,0003.09
2023-06-07 00:26:00,SystemResetWarning,0829.6,5.00,000.00,029.9,028.3,000.0,038.3,031.3,22.9,0000.0,0003.34,0004.85,0002.99
2023-06-07 00:27:00,SystemResetWarning,0829.6,5.00,000.00,029.9,028.2,000.0,038.3,031.3,22.6,0000.0,0003.28,0004.71,0002.88
2023-06-07 00:28:00,SystemResetWarning,0829.6,4.99,000.00,029.9,026.5,000.0,038.3,031.3,23.3,0000.0,0003.24,0004.64,0002.80
2023-06-07 00:29:00,SystemResetWarning,0829.6,5.03,000.00,029.9,025.4,000.0,038.3,031.3,23.2,0000.0,0003.20,0004.62,0002.72
2023-06-07 00:30:00,SystemResetWarning,0829.6,5.00,000.00,029.8,025.4,000.0,038.2,031.0,23.2,0000.0,0003.13,0004.62,0002.67
2023-06-07 00:31:00,SystemResetWarning,0829.6,4.99,000.00,029.7,025.7,000.0,038.2,030.9,23.4,0000.0,0003.13,0004.59,0002.65
2023-06-07 00:32:00,SystemResetWarning,0829.6,5.00,000.00,029.7,026.1,000.0,038.2,030.8,23.6,0000.0,0003.13,0004.58,0002.64
2023-06-07 00:33:00,SystemResetWarning,0829.7,5.01,000.00,029.6,026.5,000.0,038.2,030.9,22.6,0000.0,0003.14,0004.69,0002.63
2023-06-07 00:34:00,SystemResetWarning,0829.7,4.99,000.00,029.6,026.8,000.0,038.2,030.9,23.2,0000.0,0003.13,0004.66,0002.62
2023-06-07 00:35:00,SystemResetWarning,0829.7,5.00,000.00,029.6,027.1,000.0,038.2,031.0,23.5,0000.0,0003.11,0004.59,0002.60
2023-06-07 00:36:00,SystemResetWarning,0829.7,5.00,000.00,029.6,027.4,000.0,038.2,031.0,22.4,0000.0,0003.06,0004.47,0002.55
2023-06-07 00:37:00,SystemResetWarning,0829.7,5.00,000.00,029.7,027.6,000.0,038.2,031.1,22.7,0000.0,0003.08,0004.50,0002.54
2023-06-07 00:38:00,SystemResetWarning,0829.7,4.99,000.00,029.7,027.8,000.0,038.2,031.1,23.7,0000.0,0003.12,0004.61,0002.55
2023-06-07 00:39:00,SystemResetWarning,0829.7,5.00,000.00,029.7,028.0,000.0,038.2,031.2,22.5,0000.0,0003.10,0004.54,0002.55
2023-06-07 00:40:00,SystemResetWarning,0829.7,5.00,000.00,029.7,028.1,000.0,038.2,031.2,22.8,0000.0,0003.07,0004.43,0002.55
2023-06-07 00:41:00,SystemResetWarning,0829.7,5.00,000.00,029.8,028.2,000.0,038.2,031.3,23.0,0000.0,0003.08,0004.23,0002.53
2023-06-07 00:42:00,SystemResetWarning,0829.8,5.00,000.00,029.8,028.3,000.0,038.2,031.3,22.1,0000.0,0003.07,0004.20,0002.51
2023-06-07 00:43:00,SystemResetWarning,0829.7,5.00,000.00,029.8,028.2,000.0,038.3,031.3,22.4,0000.0,0003.06,0004.31,0002.49
2023-06-07 00:44:00,SystemResetWarning,0829.7,4.99,000.00,029.8,026.5,000.0,038.2,031.3,24.7,0000.0,0003.05,0004.36,0002.48
2023-06-07 00:45:00,SystemResetWarning,0829.7,5.02,000.00,029.8,025.4,000.0,038.2,031.2,24.4,0000.0,0003.08,0004.44,0002.48
2023-06-07 00:46:00,SystemResetWarning,0829.7,5.01,000.00,029.7,025.5,000.0,038.2,031.0,24.1,0000.0,0003.11,0004.56,0002.46
2023-06-07 00:47:00,SystemResetWarning,0829.7,4.99,000.00,029.6,025.8,000.0,038.2,030.8,24.5,0000.0,0003.11,0004.55,0002.46
2023-06-07 00:48:00,SystemResetWarning,0829.7,5.00,000.00,029.6,026.2,000.0,038.2,030.8,25.0,0000.0,0003.11,0004.61,0002.45
2023-06-07 00:49:00,SystemResetWarning,0829.8,5.01,000.00,029.6,026.5,000.0,038.2,030.9,24.1,0000.0,0003.09,0004.61,0002.44
2023-06-07 00:50:00,SystemResetWarning,0829.8,5.00,000.00,029.6,026.9,000.0,038.1,030.9,24.3,0000.0,0003.11,0004.72,0002.44
2023-06-07 00:51:00,SystemResetWarning,0829.8,5.00,000.00,029.6,027.2,000.0,038.1,031.0,24.4,0000.0,0003.11,0004.74,0002.43
2023-06-07 00:52:00,SystemResetWarning,0829.8,5.01,000.00,029.6,027.4,000.0,038.1,031.0,24.2,0000.0,0003.11,0004.76,0002.43
2023-06-07 00:53:00,SystemResetWarning,0829.8,5.00,000.00,029.6,027.7,000.0,038.2,031.1,24.3,0000.0,0003.11,0004.78,0002.44
2023-06-07 00:54:00,SystemResetWarning,0829.8,5.00,000.00,029.6,027.8,000.0,038.2,031.1,24.0,0000.0,0003.12,0004.79,0002.45
2023-06-07 00:55:00,SystemResetWarning,0829.8,4.99,000.00,029.7,028.0,000.0,038.2,031.2,24.4,0000.0,0003.14,0004.80,0002.45
2023-06-07 00:56:00,SystemResetWarning,0829.9,4.99,000.00,029.7,028.1,000.0,038.2,031.2,24.8,0000.0,0003.14,0004.80,0002.45
2023-06-07 00:57:00,SystemResetWarning,0829.9,5.00,000.00,029.7,028.3,000.0,038.2,031.2,24.6,0000.0,0003.11,0004.72,0002.46
2023-06-07 00:58:00,SystemResetWarning,0829.9,5.00,000.00,029.8,028.4,000.0,038.2,031.3,24.4,0000.0,0003.10,0004.68,0002.46
2023-06-07 00:59:00,SystemResetWarning,0829.9,5.00,000.00,029.8,028.3,000.0,038.2,031.3,24.3,0000.0,0003.10,0004.70,0002.47
